Retour au catalogue

FENGYUN 1C DEB

ActifPO
NORAD 30060·DEBRIS·🇨🇳 China

Lancé May 10, 1999 depuis Taiyuan Satellite Launch Center

Loading…

Prochains Passages (prochaines 24 heures)

TLE

FraisSource: Space-Track

Époque: Sep 14, 2026, 19:35 UTC

1 30060U 99025PM  26257.81654359  .00000720  00000-0  91137-3 0  9990
2 30060  99.2945 109.4372 0343963 102.9888 274.4430 13.44419946959528

Suivez FENGYUN 1C DEB en temps réel avec AllMySat

Download on the App Store